This is the latest recevied weather packets stored in our database for station/object K7GFH-13. If no packets are shown the sender has not sent any weather packets the latest 10 day(s).
| Time | Temp. | Humidity | Pressure | Rain* | Wind** | Luminosity | Snow |
|---|---|---|---|---|---|---|---|
| 1777637684 | 10.56° C | 72% | 1017.6 hPa | 0 mm | - | 0 W/m² | - |
| 1777636779 | 10.56° C | 70% | 1017.8 hPa | 0 mm | - | 0 W/m² | - |
| 1777635878 | 11.11° C | 66% | 1017.8 hPa | 0 mm | - | 0 W/m² | - |
| 1777634974 | 11.67° C | 62% | 1017.7 hPa | 0 mm | - | 0 W/m² | - |
| 1777634071 | 11.67° C | 63% | 1017.7 hPa | 0 mm | - | 0 W/m² | - |
| 1777633169 | 12.22° C | 58% | 1017.5 hPa | 0 mm | - | 0 W/m² | - |
| 1777631363 | 12.22° C | 58% | 1017.4 hPa | 0 mm | - | 0 W/m² | - |
| 1777630459 | 13.33° C | 56% | 1017.3 hPa | 0 mm | - | 0 W/m² | - |
| 1777629556 | 14.44° C | 49% | 1017.2 hPa | 0 mm | - | 0 W/m² | - |
| 1777628651 | 14.44° C | 49% | 1017.2 hPa | 0 mm | - | 0 W/m² | - |
| 1777627748 | 14.44° C | 51% | 1017.1 hPa | 0 mm | - | 0 W/m² | - |
| 1777626846 | 14.44° C | 51% | 1017.2 hPa | 0 mm | - | 0 W/m² | - |
| 1777625941 | 15° C | 50% | 1017.1 hPa | 0 mm | - | 0 W/m² | - |
| 1777625036 | 14.44° C | 52% | 1017.2 hPa | 0 mm | - | 0 W/m² | - |
| 1777624131 | 15° C | 51% | 1017.1 hPa | 0 mm | - | 0 W/m² | - |
| 1777623228 | 15.56° C | 50% | 1017.2 hPa | 0 mm | - | 0 W/m² | - |
| 1777622324 | 15° C | 53% | 1017.3 hPa | 0 mm | - | 0 W/m² | - |
| 1777621418 | 15.56° C | 50% | 1017.3 hPa | 0 mm | - | 0 W/m² | - |
| 1777620513 | 15° C | 52% | 1017.3 hPa | 0 mm | - | 0 W/m² | - |
| 1777619608 | 14.44° C | 55% | 1017.5 hPa | 0 mm | - | 0 W/m² | - |
| 1777618705 | 15° C | 51% | 1017.4 hPa | 0 mm | - | 0 W/m² | - |
| 1777617804 | 16.11° C | 48% | 1017.1 hPa | 0 mm | - | 0 W/m² | - |
| 1777616904 | 16.67° C | 44% | 1017.1 hPa | 0 mm | - | 0 W/m² | - |
| 1777616003 | 17.78° C | 42% | 1017.1 hPa | 0 mm | - | 0 W/m² | - |
| 1777615101 | 17.78° C | 40% | 1017 hPa | 0 mm | - | 0 W/m² | - |
* Rain latest hour (hover to see other rain measurements)
** Current wind speed in m/s (hover to see current wind gust speed)